Time,TemperatureF,DewpointF,PressureIn,WindDirection,WindDirectionDegrees,WindSpeedMPH,WindSpeedGustMPH,Humidity,HourlyPrecipIn,Conditions,Clouds,dailyrainin,SoftwareType,DateUTC
2013-01-23 00:05:00,0.5,-7.6,30.29,West,279,0.0,0.0,68,0.00,,,0.00,Wunderground v.1.13,2013-01-23 06:05:00,
2013-01-23 00:15:00,0.9,-7.2,30.29,West,279,0.0,0.0,68,0.00,,,0.00,Wunderground v.1.13,2013-01-23 06:15:00,
2013-01-23 00:20:00,0.9,-7.2,30.29,West,279,0.0,0.0,68,0.00,,,0.00,Wunderground v.1.13,2013-01-23 06:20:00,
2013-01-23 00:30:00,1.1,-7.0,30.29,West,279,0.0,0.0,68,0.00,,,0.00,Wunderground v.1.13,2013-01-23 06:30:00,
2013-01-23 00:40:00,1.7,-6.7,30.28,West,279,0.0,0.0,67,0.00,,,0.00,Wunderground v.1.13,2013-01-23 06:40:00,
2013-01-23 00:45:00,1.8,-6.6,30.28,West,279,0.0,0.0,67,0.00,,,0.00,Wunderground v.1.13,2013-01-23 06:45:00,
2013-01-23 00:50:00,2.0,-6.8,30.28,West,279,0.0,0.0,66,0.00,,,0.00,Wunderground v.1.13,2013-01-23 06:50:00,
2013-01-23 01:00:00,2.4,-6.7,30.28,West,279,0.0,0.0,65,0.00,,,0.00,Wunderground v.1.13,2013-01-23 07:00:00,
2013-01-23 01:05:00,2.6,-6.5,30.27,West,279,0.0,0.0,65,0.00,,,0.00,Wunderground v.1.13,2013-01-23 07:05:00,
2013-01-23 01:15:00,3.0,-6.1,30.27,West,279,0.0,0.0,65,0.00,,,0.00,Wunderground v.1.13,2013-01-23 07:15:00,
2013-01-23 01:20:00,3.2,-5.9,30.27,West,279,0.0,0.0,65,0.00,,,0.00,Wunderground v.1.13,2013-01-23 07:20:00,
2013-01-23 01:30:00,3.5,-5.6,30.27,West,279,0.0,0.0,65,0.00,,,0.00,Wunderground v.1.13,2013-01-23 07:30:00,
2013-01-23 01:35:00,3.5,-6.0,30.27,West,279,0.0,0.0,64,0.00,,,0.00,Wunderground v.1.13,2013-01-23 07:35:00,
2013-01-23 01:45:00,3.9,-5.6,30.27,West,279,0.0,0.0,64,0.00,,,0.00,Wunderground v.1.13,2013-01-23 07:45:00,
2013-01-23 01:50:00,3.9,-5.6,30.27,West,279,0.0,0.0,64,0.00,,,0.00,Wunderground v.1.13,2013-01-23 07:50:00,
2013-01-23 01:55:00,4.1,-5.4,30.27,West,279,0.0,0.0,64,0.00,,,0.00,Wunderground v.1.13,2013-01-23 07:55:00,
2013-01-23 02:00:00,4.3,-4.9,30.27,West,279,0.0,0.0,65,0.00,,,0.00,Wunderground v.1.13,2013-01-23 08:00:00,
2013-01-23 02:05:00,4.3,-4.9,30.27,West,279,0.0,0.0,65,0.00,,,0.00,Wunderground v.1.13,2013-01-23 08:05:00,
2013-01-23 02:15:00,4.5,-4.7,30.27,West,279,0.0,0.0,65,0.00,,,0.00,Wunderground v.1.13,2013-01-23 08:15:00,
2013-01-23 02:25:00,4.8,-4.4,30.27,West,279,0.0,0.0,65,0.00,,,0.00,Wunderground v.1.13,2013-01-23 08:25:00,
2013-01-23 02:30:00,4.8,-4.7,30.27,West,279,0.0,0.0,64,0.00,,,0.00,Wunderground v.1.13,2013-01-23 08:30:00,
2013-01-23 02:35:00,5.0,-4.5,30.27,West,279,0.0,0.0,64,0.00,,,0.00,Wunderground v.1.13,2013-01-23 08:35:00,
2013-01-23 02:40:00,5.2,-4.3,30.27,West,279,0.0,0.0,64,0.00,,,0.00,Wunderground v.1.13,2013-01-23 08:40:00,
2013-01-23 02:50:00,5.4,-4.2,30.26,West,279,0.0,0.0,64,0.00,,,0.00,Wunderground v.1.13,2013-01-23 08:50:00,
2013-01-23 02:55:00,5.4,-4.2,30.26,West,279,0.0,0.0,64,0.00,,,0.00,Wunderground v.1.13,2013-01-23 08:55:00,
2013-01-23 03:00:00,5.4,-4.2,30.26,West,279,0.0,0.0,64,0.00,,,0.00,Wunderground v.1.13,2013-01-23 09:00:00,
2013-01-23 03:05:00,5.6,-4.0,30.26,West,279,0.0,0.0,64,0.00,,,0.00,Wunderground v.1.13,2013-01-23 09:05:00,
2013-01-23 03:15:00,5.6,-4.0,30.26,West,279,0.0,0.0,64,0.00,,,0.00,Wunderground v.1.13,2013-01-23 09:15:00,
2013-01-23 03:25:00,6.0,-3.6,30.25,West,279,0.0,0.0,64,0.00,,,0.00,Wunderground v.1.13,2013-01-23 09:25:00,
2013-01-23 03:30:00,6.0,-3.3,30.25,West,279,0.0,0.0,65,0.00,,,0.00,Wunderground v.1.13,2013-01-23 09:30:00,
2013-01-23 03:40:00,6.1,-3.2,30.25,West,279,0.0,0.0,65,0.00,,,0.00,Wunderground v.1.13,2013-01-23 09:40:00,
2013-01-23 03:50:00,6.5,-3.1,30.25,West,279,0.0,0.0,64,0.00,,,0.00,Wunderground v.1.13,2013-01-23 09:50:00,
2013-01-23 03:55:00,6.7,-2.9,30.25,West,279,0.0,0.0,64,0.00,,,0.00,Wunderground v.1.13,2013-01-23 09:55:00,
2013-01-23 04:00:00,6.9,-3.1,30.25,WSW,250,0.0,0.0,63,0.00,,,0.00,Wunderground v.1.13,2013-01-23 10:00:00,
2013-01-23 04:05:00,6.9,-3.4,30.25,WSW,250,0.0,4.0,62,0.00,,,0.00,Wunderground v.1.13,2013-01-23 10:05:00,
2013-01-23 04:15:00,7.0,-3.3,30.25,WSW,244,0.0,4.0,62,0.00,,,0.00,Wunderground v.1.13,2013-01-23 10:15:00,
2013-01-23 04:25:00,7.2,-3.4,30.24,WSW,244,0.0,4.0,61,0.00,,,0.00,Wunderground v.1.13,2013-01-23 10:25:00,
2013-01-23 04:35:00,7.4,-3.3,30.23,WSW,244,0.0,4.0,61,0.00,,,0.00,Wunderground v.1.13,2013-01-23 10:35:00,
2013-01-23 04:40:00,7.4,-3.6,30.23,WSW,244,0.0,4.0,60,0.00,,,0.00,Wunderground v.1.13,2013-01-23 10:40:00,
2013-01-23 04:50:00,7.6,-3.4,30.22,WSW,244,0.0,4.0,60,0.00,,,0.00,Wunderground v.1.13,2013-01-23 10:50:00,
2013-01-23 05:00:00,7.7,-3.7,30.22,WSW,244,0.0,4.0,59,0.00,,,0.00,Wunderground v.1.13,2013-01-23 11:00:00,
2013-01-23 05:05:00,7.7,-3.7,30.23,WSW,244,0.0,2.0,59,0.00,,,0.00,Wunderground v.1.13,2013-01-23 11:05:00,
2013-01-23 05:15:00,7.9,-3.5,30.23,WSW,244,0.0,2.0,59,0.00,,,0.00,Wunderground v.1.13,2013-01-23 11:15:00,
2013-01-23 05:20:00,8.1,-3.3,30.22,WSW,244,0.0,2.0,59,0.00,,,0.00,Wunderground v.1.13,2013-01-23 11:20:00,
2013-01-23 05:25:00,8.1,-3.6,30.22,SW,232,0.0,2.0,58,0.00,,,0.00,Wunderground v.1.13,2013-01-23 11:25:00,
2013-01-23 05:35:00,8.3,-3.5,30.23,SW,232,0.0,2.0,58,0.00,,,0.00,Wunderground v.1.13,2013-01-23 11:35:00,
2013-01-23 05:40:00,8.3,-3.8,30.23,SW,232,0.0,2.0,57,0.00,,,0.00,Wunderground v.1.13,2013-01-23 11:40:00,
2013-01-23 05:50:00,8.4,-3.7,30.23,SW,232,0.0,2.0,57,0.00,,,0.00,Wunderground v.1.13,2013-01-23 11:50:00,
2013-01-23 06:00:00,8.6,-3.9,30.23,SW,232,0.0,2.0,56,0.00,,,0.00,Wunderground v.1.13,2013-01-23 12:00:00,
2013-01-23 06:05:00,8.8,-3.4,30.23,SW,232,0.0,3.0,57,0.00,,,0.00,Wunderground v.1.13,2013-01-23 12:05:00,
2013-01-23 06:15:00,8.8,-3.7,30.23,SW,220,1.0,1.0,56,0.00,,,0.00,Wunderground v.1.13,2013-01-23 12:15:00,
2013-01-23 06:25:00,9.0,-3.2,30.22,SW,220,0.0,3.0,57,0.00,,,0.00,Wunderground v.1.13,2013-01-23 12:25:00,
2013-01-23 06:30:00,9.0,-3.2,30.22,SSW,213,0.0,3.0,57,0.00,,,0.00,Wunderground v.1.13,2013-01-23 12:30:00,
2013-01-23 06:40:00,9.0,-3.2,30.21,SW,215,0.0,3.0,57,0.00,,,0.00,Wunderground v.1.13,2013-01-23 12:40:00,
2013-01-23 06:50:00,9.0,-2.4,30.20,SSW,213,0.0,3.0,59,0.00,,,0.00,Wunderground v.1.13,2013-01-23 12:50:00,
2013-01-23 07:00:00,9.0,-1.7,30.20,SW,215,1.0,1.0,61,0.00,,,0.00,Wunderground v.1.13,2013-01-23 13:00:00,
2013-01-23 07:05:00,9.0,-1.4,30.20,SW,215,0.0,5.0,62,0.00,,,0.00,Wunderground v.1.13,2013-01-23 13:05:00,
2013-01-23 07:15:00,9.0,-1.4,30.20,SSW,201,1.0,1.0,62,0.00,,,0.00,Wunderground v.1.13,2013-01-23 13:15:00,
2013-01-23 07:20:00,9.0,-1.4,30.20,SSW,201,0.0,5.0,62,0.00,,,0.00,Wunderground v.1.13,2013-01-23 13:20:00,
2013-01-23 07:25:00,9.0,-1.1,30.20,SSW,201,0.0,5.0,63,0.00,,,0.00,Wunderground v.1.13,2013-01-23 13:25:00,
2013-01-23 07:30:00,9.2,-0.9,30.20,SSW,201,0.0,5.0,63,0.00,,,0.00,Wunderground v.1.13,2013-01-23 13:30:00,
2013-01-23 07:40:00,9.3,-0.8,30.20,SSW,201,0.0,5.0,63,0.00,,,0.00,Wunderground v.1.13,2013-01-23 13:40:00,
2013-01-23 07:50:00,9.3,-0.4,30.20,SSW,196,0.0,5.0,64,0.00,,,0.00,Wunderground v.1.13,2013-01-23 13:50:00,
2013-01-23 08:00:00,9.3,-0.1,30.20,SSW,195,0.0,5.0,65,0.00,,,0.00,Wunderground v.1.13,2013-01-23 14:00:00,
2013-01-23 08:05:00,9.3,0.2,30.20,SSW,196,0.0,6.0,66,0.00,,,0.00,Wunderground v.1.13,2013-01-23 14:05:00,
2013-01-23 08:15:00,9.5,0.4,30.20,SSW,195,1.0,1.0,66,0.00,,,0.00,Wunderground v.1.13,2013-01-23 14:15:00,
2013-01-23 08:25:00,9.9,1.1,30.20,SSW,196,0.0,6.0,67,0.00,,,0.00,Wunderground v.1.13,2013-01-23 14:25:00,
2013-01-23 08:30:00,9.9,1.1,30.20,SSW,196,0.0,6.0,67,0.00,,,0.00,Wunderground v.1.13,2013-01-23 14:30:00,
2013-01-23 08:40:00,10.0,1.5,30.20,SSW,199,1.0,6.0,68,0.00,,,0.00,Wunderground v.1.13,2013-01-23 14:40:00,
2013-01-23 08:50:00,10.2,1.7,30.20,SSW,201,1.0,1.0,68,0.00,,,0.00,Wunderground v.1.13,2013-01-23 14:50:00,
2013-01-23 08:55:00,10.2,2.0,30.20,SSW,204,1.0,1.0,69,0.00,,,0.00,Wunderground v.1.13,2013-01-23 14:55:00,
2013-01-23 09:05:00,10.5,2.3,30.19,South,191,1.0,8.0,69,0.00,,,0.00,Wunderground v.1.13,2013-01-23 15:05:00,
2013-01-23 09:15:00,10.7,2.8,30.19,South,186,1.0,8.0,70,0.00,,,0.00,Wunderground v.1.13,2013-01-23 15:15:00,
2013-01-23 09:25:00,10.7,2.8,30.19,SSW,197,2.0,8.0,70,0.00,,,0.00,Wunderground v.1.13,2013-01-23 15:25:00,
2013-01-23 09:35:00,10.9,3.0,30.19,SSW,199,2.0,2.0,70,0.00,,,0.00,Wunderground v.1.13,2013-01-23 15:35:00,
2013-01-23 09:45:00,11.2,3.6,30.19,South,179,1.0,1.0,71,0.00,,,0.00,Wunderground v.1.13,2013-01-23 15:45:00,
2013-01-23 09:55:00,11.4,3.8,30.19,South,187,1.0,8.0,71,0.00,,,0.00,Wunderground v.1.13,2013-01-23 15:55:00,
2013-01-23 10:00:00,11.6,4.0,30.19,South,187,1.0,8.0,71,0.00,,,0.00,Wunderground v.1.13,2013-01-23 16:00:00,
2013-01-23 10:05:00,11.7,4.1,30.19,South,186,2.0,2.0,71,0.00,,,0.00,Wunderground v.1.13,2013-01-23 16:05:00,
2013-01-23 10:15:00,11.9,4.6,30.19,South,180,1.0,1.0,72,0.00,,,0.00,Wunderground v.1.13,2013-01-23 16:15:00,
2013-01-23 10:25:00,12.3,5.0,30.19,South,188,1.0,1.0,72,0.00,,,0.00,Wunderground v.1.13,2013-01-23 16:25:00,
2013-01-23 10:35:00,12.3,5.0,30.19,SSE,165,2.0,2.0,72,0.00,,,0.00,Wunderground v.1.13,2013-01-23 16:35:00,
2013-01-23 10:40:00,12.6,5.3,30.19,SSE,166,1.0,7.0,72,0.00,,,0.00,Wunderground v.1.13,2013-01-23 16:40:00,
2013-01-23 10:45:00,12.6,5.6,30.19,SSE,166,1.0,7.0,73,0.00,,,0.00,Wunderground v.1.13,2013-01-23 16:45:00,
2013-01-23 10:55:00,12.9,5.6,30.18,SSE,167,2.0,7.0,72,0.00,,,0.00,Wunderground v.1.13,2013-01-23 16:55:00,
2013-01-23 11:00:00,13.1,5.8,30.18,SSE,167,2.0,7.0,72,0.00,,,0.00,Wunderground v.1.13,2013-01-23 17:00:00,
2013-01-23 11:05:00,13.3,6.0,30.18,SSE,157,2.0,2.0,72,0.00,,,0.00,Wunderground v.1.13,2013-01-23 17:05:00,
2013-01-23 11:15:00,14.0,6.9,30.18,SW,218,1.0,1.0,73,0.00,,,0.00,Wunderground v.1.13,2013-01-23 17:15:00,
2013-01-23 11:20:00,14.0,6.6,30.16,South,171,2.0,2.0,72,0.00,,,0.00,Wunderground v.1.13,2013-01-23 17:20:00,
2013-01-23 11:25:00,14.0,6.6,30.16,SSW,196,2.0,8.0,72,0.00,,,0.00,Wunderground v.1.13,2013-01-23 17:25:00,
2013-01-23 11:30:00,13.8,6.1,30.16,South,187,3.0,3.0,71,0.00,,,0.00,Wunderground v.1.13,2013-01-23 17:30:00,
2013-01-23 11:40:00,13.8,6.1,30.15,South,180,3.0,8.0,71,0.00,,,0.00,Wunderground v.1.13,2013-01-23 17:40:00,
2013-01-23 11:45:00,14.0,6.3,30.15,South,182,3.0,3.0,71,0.00,,,0.00,Wunderground v.1.13,2013-01-23 17:45:00,
2013-01-23 11:50:00,14.1,6.7,30.14,South,187,3.0,3.0,72,0.00,,,0.00,Wunderground v.1.13,2013-01-23 17:50:00,
2013-01-23 11:55:00,14.6,7.2,30.14,SW,226,3.0,8.0,72,0.00,,,0.00,Wunderground v.1.13,2013-01-23 17:55:00,
2013-01-23 12:05:00,14.8,6.8,30.12,South,187,2.0,12.0,70,0.00,,,0.00,Wunderground v.1.13,2013-01-23 18:05:00,
2013-01-23 12:15:00,14.9,6.9,30.12,SSW,202,2.0,12.0,70,0.00,,,0.00,Wunderground v.1.13,2013-01-23 18:15:00,
2013-01-23 12:25:00,14.9,7.2,30.10,South,183,3.0,12.0,71,0.00,,,0.00,Wunderground v.1.13,2013-01-23 18:25:00,
2013-01-23 12:30:00,15.1,7.1,30.10,South,190,2.0,12.0,70,0.00,,,0.00,Wunderground v.1.13,2013-01-23 18:30:00,
2013-01-23 12:35:00,14.9,6.9,30.10,SW,220,3.0,12.0,70,0.00,,,0.00,Wunderground v.1.13,2013-01-23 18:35:00,
2013-01-23 12:45:00,15.1,7.1,30.10,WSW,250,5.0,12.0,70,0.00,,,0.00,Wunderground v.1.13,2013-01-23 18:45:00,
2013-01-23 12:50:00,15.1,6.8,30.09,SSW,194,3.0,3.0,69,0.00,,,0.00,Wunderground v.1.13,2013-01-23 18:50:00,
2013-01-23 13:00:00,15.9,7.5,30.09,SSW,194,2.0,12.0,69,0.00,,,0.00,Wunderground v.1.13,2013-01-23 19:00:00,
2013-01-23 13:05:00,16.1,7.7,30.08,SSW,205,3.0,3.0,69,0.00,,,0.00,Wunderground v.1.13,2013-01-23 19:05:00,
2013-01-23 13:15:00,16.4,8.0,30.08,SSW,196,2.0,2.0,69,0.00,,,0.00,Wunderground v.1.13,2013-01-23 19:15:00,
2013-01-23 13:20:00,16.5,8.1,30.07,SW,223,2.0,2.0,69,0.00,,,0.00,Wunderground v.1.13,2013-01-23 19:20:00,
2013-01-23 13:30:00,16.7,8.6,30.07,SSW,205,2.0,13.0,70,0.00,,,0.00,Wunderground v.1.13,2013-01-23 19:30:00,
2013-01-23 13:40:00,17.5,9.1,30.06,West,261,2.0,2.0,69,0.00,,,0.00,Wunderground v.1.13,2013-01-23 19:40:00,
2013-01-23 13:45:00,17.2,8.4,30.06,West,266,2.0,2.0,68,0.00,,,0.00,Wunderground v.1.13,2013-01-23 19:45:00,
2013-01-23 13:55:00,17.0,8.3,30.07,SW,221,2.0,13.0,68,0.00,,,0.00,Wunderground v.1.13,2013-01-23 19:55:00,
2013-01-23 14:00:00,16.9,8.2,30.07,South,188,2.0,2.0,68,0.00,,,0.00,Wunderground v.1.13,2013-01-23 20:00:00,
2013-01-23 14:05:00,16.9,8.5,30.06,SW,225,2.0,10.0,69,0.00,,,0.00,Wunderground v.1.13,2013-01-23 20:05:00,
2013-01-23 14:15:00,17.0,8.6,30.06,WSW,238,2.0,2.0,69,0.00,,,0.00,Wunderground v.1.13,2013-01-23 20:15:00,
2013-01-23 14:25:00,17.0,8.9,30.05,WSW,257,2.0,10.0,70,0.00,,,0.00,Wunderground v.1.13,2013-01-23 20:25:00,
2013-01-23 14:35:00,16.9,9.1,30.05,West,269,2.0,2.0,71,0.00,,,0.00,Wunderground v.1.13,2013-01-23 20:35:00,
2013-01-23 14:40:00,17.0,9.5,30.05,West,269,1.0,1.0,72,0.00,,,0.00,Wunderground v.1.13,2013-01-23 20:40:00,
2013-01-23 14:50:00,17.0,9.8,30.05,West,271,2.0,2.0,73,0.00,,,0.00,Wunderground v.1.13,2013-01-23 20:50:00,
2013-01-23 15:00:00,16.9,10.0,30.05,West,275,3.0,3.0,74,0.00,,,0.00,Wunderground v.1.13,2013-01-23 21:00:00,
2013-01-23 15:05:00,16.9,9.7,30.06,West,272,2.0,2.0,73,0.00,,,0.00,Wunderground v.1.13,2013-01-23 21:05:00,
2013-01-23 15:15:00,16.7,9.5,30.06,West,273,3.0,3.0,73,0.00,,,0.00,Wunderground v.1.13,2013-01-23 21:15:00,
2013-01-23 15:20:00,16.9,10.0,30.06,WSW,252,3.0,3.0,74,0.00,,,0.00,Wunderground v.1.13,2013-01-23 21:20:00,
2013-01-23 15:30:00,16.9,10.0,30.06,WSW,255,2.0,2.0,74,0.00,,,0.00,Wunderground v.1.13,2013-01-23 21:30:00,
2013-01-23 15:40:00,17.0,9.8,30.07,West,259,2.0,11.0,73,0.00,,,0.00,Wunderground v.1.13,2013-01-23 21:40:00,
2013-01-23 15:50:00,17.0,9.8,30.07,WNW,283,4.0,12.0,73,0.00,,,0.00,Wunderground v.1.13,2013-01-23 21:50:00,
2013-01-23 15:55:00,17.0,9.8,30.07,West,261,6.0,6.0,73,0.00,,,0.00,Wunderground v.1.13,2013-01-23 21:55:00,
2013-01-23 16:00:00,16.9,9.7,30.07,WNW,283,5.0,5.0,73,0.00,,,0.00,Wunderground v.1.13,2013-01-23 22:00:00,
2013-01-23 16:05:00,16.9,9.7,30.07,West,261,5.0,16.0,73,0.00,,,0.00,Wunderground v.1.13,2013-01-23 22:05:00,
2013-01-23 16:15:00,16.9,10.0,30.07,West,266,4.0,16.0,74,0.00,,,0.00,Wunderground v.1.13,2013-01-23 22:15:00,
2013-01-23 16:25:00,16.9,10.3,30.07,WNW,285,2.0,2.0,75,0.00,,,0.00,Wunderground v.1.13,2013-01-23 22:25:00,
2013-01-23 16:35:00,16.9,10.3,30.07,West,275,4.0,4.0,75,0.00,,,0.00,Wunderground v.1.13,2013-01-23 22:35:00,
2013-01-23 16:40:00,16.9,10.3,30.07,WNW,288,4.0,16.0,75,0.00,,,0.00,Wunderground v.1.13,2013-01-23 22:40:00,
2013-01-23 16:45:00,16.7,10.4,30.07,WNW,301,4.0,4.0,76,0.00,,,0.00,Wunderground v.1.13,2013-01-23 22:45:00,
2013-01-23 16:55:00,16.5,10.5,30.07,West,271,3.0,3.0,77,0.00,,,0.00,Wunderground v.1.13,2013-01-23 22:55:00,
2013-01-23 17:05:00,16.5,10.8,30.07,West,278,3.0,3.0,78,0.00,,,0.00,Wunderground v.1.13,2013-01-23 23:05:00,
2013-01-23 17:15:00,16.4,10.7,30.07,WNW,284,3.0,14.0,78,0.00,,,0.00,Wunderground v.1.13,2013-01-23 23:15:00,
2013-01-23 17:20:00,16.2,10.5,30.08,West,281,4.0,14.0,78,0.00,,,0.00,Wunderground v.1.13,2013-01-23 23:20:00,
2013-01-23 17:30:00,16.2,10.5,30.08,West,276,3.0,3.0,78,0.00,,,0.00,Wunderground v.1.13,2013-01-23 23:30:00,
2013-01-23 17:35:00,16.4,11.0,30.09,West,269,2.0,14.0,79,0.00,,,0.00,Wunderground v.1.13,2013-01-23 23:35:00,
2013-01-23 17:40:00,16.2,10.8,30.09,WSW,258,4.0,14.0,79,0.00,,,0.00,Wunderground v.1.13,2013-01-23 23:40:00,
2013-01-23 17:50:00,16.2,10.5,30.11,West,278,7.0,7.0,78,0.00,,,0.00,Wunderground v.1.13,2013-01-23 23:50:00,
2013-01-23 17:55:00,16.2,10.8,30.11,WNW,286,7.0,7.0,79,0.00,,,0.00,Wunderground v.1.13,2013-01-23 23:55:00,
2013-01-23 18:05:00,15.7,10.1,30.11,West,280,6.0,6.0,78,0.00,,,0.00,Wunderground v.1.13,2013-01-24 00:05:00,
2013-01-23 18:15:00,15.2,9.0,30.11,WNW,285,7.0,7.0,76,0.00,,,0.00,Wunderground v.1.13,2013-01-24 00:15:00,
2013-01-23 18:25:00,14.9,8.7,30.12,WNW,283,5.0,5.0,76,0.00,,,0.00,Wunderground v.1.13,2013-01-24 00:25:00,
2013-01-23 18:30:00,14.9,8.7,30.12,NW,320,4.0,16.0,76,0.00,,,0.00,Wunderground v.1.13,2013-01-24 00:30:00,
2013-01-23 18:35:00,14.9,8.4,30.14,NW,311,4.0,16.0,75,0.00,,,0.00,Wunderground v.1.13,2013-01-24 00:35:00,
2013-01-23 18:45:00,14.6,8.1,30.14,NW,306,6.0,16.0,75,0.00,,,0.00,Wunderground v.1.13,2013-01-24 00:45:00,
2013-01-23 18:50:00,14.3,8.4,30.15,WNW,292,6.0,16.0,77,0.00,,,0.00,Wunderground v.1.13,2013-01-24 00:50:00,
2013-01-23 19:00:00,14.1,8.5,30.15,NW,305,10.0,16.0,78,0.00,,,0.00,Wunderground v.1.13,2013-01-24 01:00:00,
2013-01-23 19:05:00,14.0,8.1,30.16,NW,311,9.0,23.0,77,0.00,,,0.00,Wunderground v.1.13,2013-01-24 01:05:00,
2013-01-23 19:15:00,13.3,8.0,30.16,NNE,13,11.0,23.0,79,0.00,,,0.00,Wunderground v.1.13,2013-01-24 01:15:00,
2013-01-23 19:20:00,12.4,7.7,30.18,North,360,11.0,11.0,81,0.00,,,0.00,Wunderground v.1.13,2013-01-24 01:20:00,
2013-01-23 19:30:00,12.1,7.9,30.18,WNW,302,9.0,23.0,83,0.00,,,0.00,Wunderground v.1.13,2013-01-24 01:30:00,
2013-01-23 19:35:00,11.9,7.5,30.20,NW,326,9.0,23.0,82,0.00,,,0.00,Wunderground v.1.13,2013-01-24 01:35:00,
2013-01-23 19:45:00,11.2,5.4,30.20,NW,315,8.0,23.0,77,0.00,,,0.00,Wunderground v.1.13,2013-01-24 01:45:00,
2013-01-23 19:50:00,10.9,3.9,30.21,NNE,23,8.0,23.0,73,0.00,,,0.00,Wunderground v.1.13,2013-01-24 01:50:00,
2013-01-23 20:00:00,10.5,2.0,30.21,NW,326,8.0,8.0,68,0.00,,,0.00,Wunderground v.1.13,2013-01-24 02:00:00,
2013-01-23 20:05:00,10.4,1.6,30.22,NW,304,8.0,8.0,67,0.00,,,0.00,Wunderground v.1.13,2013-01-24 02:05:00,
2013-01-23 20:15:00,10.2,1.1,30.22,NNW,346,7.0,7.0,66,0.00,,,0.00,Wunderground v.1.13,2013-01-24 02:15:00,
2013-01-23 20:20:00,10.0,0.6,30.23,North,5,8.0,8.0,65,0.00,,,0.00,Wunderground v.1.13,2013-01-24 02:20:00,
2013-01-23 20:30:00,9.9,-0.2,30.23,WNW,296,7.0,23.0,63,0.00,,,0.00,Wunderground v.1.13,2013-01-24 02:30:00,
2013-01-23 20:35:00,9.7,-1.1,30.25,North,10,7.0,7.0,61,0.00,,,0.00,Wunderground v.1.13,2013-01-24 02:35:00,
2013-01-23 20:45:00,9.3,-2.5,30.25,NW,309,9.0,9.0,58,0.00,,,0.00,Wunderground v.1.13,2013-01-24 02:45:00,
2013-01-23 20:55:00,9.0,-3.5,30.26,North,355,8.0,8.0,56,0.00,,,0.00,Wunderground v.1.13,2013-01-24 02:55:00,
2013-01-23 21:00:00,8.8,-4.1,30.26,NNW,348,8.0,8.0,55,0.00,,,0.00,Wunderground v.1.13,2013-01-24 03:00:00,
2013-01-23 21:05:00,8.8,-4.1,30.27,NNW,336,6.0,6.0,55,0.00,,,0.00,Wunderground v.1.13,2013-01-24 03:05:00,
2013-01-23 21:15:00,8.6,-3.9,30.27,NNW,335,7.0,7.0,56,0.00,,,0.00,Wunderground v.1.13,2013-01-24 03:15:00,
2013-01-23 21:25:00,8.3,-3.8,30.27,North,5,5.0,23.0,57,0.00,,,0.00,Wunderground v.1.13,2013-01-24 03:25:00,
2013-01-23 21:35:00,8.1,-4.4,30.29,NW,305,7.0,7.0,56,0.00,,,0.00,Wunderground v.1.13,2013-01-24 03:35:00,
2013-01-23 21:45:00,7.9,-4.2,30.29,North,350,6.0,6.0,57,0.00,,,0.00,Wunderground v.1.13,2013-01-24 03:45:00,
2013-01-23 21:55:00,7.6,-4.5,30.30,NNW,339,6.0,23.0,57,0.00,,,0.00,Wunderground v.1.13,2013-01-24 03:55:00,
2013-01-23 22:05:00,7.4,-5.4,30.30,NW,307,7.0,7.0,55,0.00,,,0.00,Wunderground v.1.13,2013-01-24 04:05:00,
2013-01-23 22:15:00,7.4,-5.0,30.30,NNW,341,5.0,5.0,56,0.00,,,0.00,Wunderground v.1.13,2013-01-24 04:15:00,
2013-01-23 22:20:00,7.2,-4.9,30.32,WNW,288,5.0,5.0,57,0.00,,,0.00,Wunderground v.1.13,2013-01-24 04:20:00,
2013-01-23 22:30:00,6.9,-5.1,30.32,NW,313,5.0,5.0,57,0.00,,,0.00,Wunderground v.1.13,2013-01-24 04:30:00,
2013-01-23 22:35:00,6.9,-4.8,30.33,NNW,329,5.0,5.0,58,0.00,,,0.00,Wunderground v.1.13,2013-01-24 04:35:00,
2013-01-23 22:45:00,6.7,-5.3,30.33,NNW,336,5.0,18.0,57,0.00,,,0.00,Wunderground v.1.13,2013-01-24 04:45:00,
2013-01-23 22:50:00,6.5,-5.5,30.34,NW,311,5.0,5.0,57,0.00,,,0.00,Wunderground v.1.13,2013-01-24 04:50:00,
2013-01-23 23:05:00,6.3,-6.1,30.35,NW,317,6.0,6.0,56,0.00,,,0.00,Wunderground v.1.13,2013-01-24 05:05:00,
2013-01-23 23:15:00,6.0,-6.0,30.35,WNW,299,4.0,19.0,57,0.00,,,0.00,Wunderground v.1.13,2013-01-24 05:15:00,
2013-01-23 23:25:00,5.6,-6.0,30.36,NW,311,6.0,19.0,58,0.00,,,0.00,Wunderground v.1.13,2013-01-24 05:25:00,
2013-01-23 23:30:00,5.6,-6.0,30.36,WNW,283,6.0,6.0,58,0.00,,,0.00,Wunderground v.1.13,2013-01-24 05:30:00,
2013-01-23 23:40:00,5.2,-6.4,30.37,NNW,329,4.0,19.0,58,0.00,,,0.00,Wunderground v.1.13,2013-01-24 05:40:00,
2013-01-23 23:45:00,5.0,-6.9,30.37,NW,318,6.0,19.0,57,0.00,,,0.00,Wunderground v.1.13,2013-01-24 05:45:00,
2013-01-23 23:55:00,4.8,-6.8,30.38,NW,319,4.0,19.0,58,0.00,,,0.00,Wunderground v.1.13,2013-01-24 05:55:00,